Vancouver, British Columbia

3:08 AM PDT on March 25, 2017 (GMT -0700)
Vancouver International Airport

Weather History for CYVR - October, 2011

Change the Weather History Date:

Thursday, October 20, 2011

  Actual Average Record
Temperature  
Mean Temperature 54 °F -  
Max Temperature 57 °F 51 °F 66 °F (2003)
Min Temperature 50 °F 39 °F 35 °F (1996)
Degree Days  
Heating Degree Days 12    
Growing Degree Days 4 (Base 50)    
Moisture  
Dew Point 49 °F    
Average Humidity 89    
Maximum Humidity 100    
Minimum Humidity 69    
Precipitation  
Precipitation 0.12 in 0.20 in - ()
Sea Level Pressure  
Sea Level Pressure 30.09 in    
Wind  
Wind Speed 4 mph ()    
Max Wind Speed 8 mph    
Max Gust Speed -    
Visibility 14.1 miles    
Events Rain    
Averages and records for this station are not official NWS values.
T = Trace of Precipitation, MM = Missing Value Source: Averaged Metar Reports

Daily Weather History Graph

Daily Weather History Graph

Search for Another Location

Airport or City:

Trip Planner

Search our weather history database for the weather conditions in past years. The results will help you decide how hot, cold, wet, or windy it might be!

Date:

Astronomy

Oct. 20, 2011 Rise Set
Actual Time 7:41 AM PDT 6:13 PM PDT
Civil Twilight 7:08 AM PDT 6:45 PM PDT
Nautical Twilight 6:31 AM PDT 7:22 PM PDT
Astronomical Twilight 5:54 AM PDT 7:58 PM PDT
Moon No Moon Rise 2:58 PM PDT (10/20)
Length of Visible Light 11h 36m
Length of Day
10h 32m
Last Quarter, 43% of the Moon is Illuminated
Oct 20
Last Quarter
Oct 26
New
Nov 2
First Quarter
Nov 10
Full
Nov 18
Last Quarter

Hourly Weather History & Observations

Time (PDT) Temp. Dew Point Humidity Pressure Visibility Wind Dir Wind Speed Gust Speed Precip Events Conditions
12:00 AM 51.8 °F 51.8 °F 100% 30.04 in 6.0 mi SSE 3.5 mph - N/A Rain Light Rain
1:00 AM 51.8 °F 51.8 °F 100% 30.04 in 6.0 mi ESE 4.6 mph - N/A Rain Light Rain
2:00 AM 51.8 °F 51.8 °F 100% 30.04 in 6.0 mi SE 3.5 mph - N/A Rain Light Rain
3:00 AM 51.8 °F 51.8 °F 100% 30.04 in 8.0 mi SE 4.6 mph - N/A Rain Light Rain
4:00 AM 51.8 °F 51.8 °F 100% 30.03 in 8.0 mi South 2.3 mph - N/A Rain Light Rain
4:33 AM 51.8 °F - N/A% - 8.0 mi South 2.3 mph - N/A Rain Light Rain
5:00 AM 52 °F 51 °F 97% 30.05 in 12 mi SW 2.3 mph - - Rain Light Rain
5:00 AM 51.8 °F 51.8 °F 100% 30.05 in 12.0 mi SW 2.3 mph - N/A   Overcast
5:21 AM 51.8 °F - N/A% - 12.0 mi South 3.5 mph - N/A   Overcast
6:00 AM 51.8 °F 51.8 °F 100% 30.05 in 6.0 mi South 2.3 mph - N/A   Overcast
6:32 AM 51.8 °F - N/A% - 8.0 mi SSW 2.3 mph - N/A   Overcast
7:00 AM 51.8 °F 51.8 °F 100% 30.05 in 12.0 mi Calm Calm - N/A   Overcast
8:00 AM 51.8 °F 51.8 °F 100% 30.06 in 10.0 mi SW 2.3 mph - N/A   Overcast
9:00 AM 51.8 °F 50.0 °F 94% 30.08 in 6.0 mi WNW 5.8 mph - N/A Rain Light Rain
9:24 AM 51.8 °F - N/A% - 8.0 mi NW 6.9 mph - N/A Rain Light Rain
9:42 AM 51.8 °F - N/A% - 10.0 mi NW 5.8 mph - N/A   Overcast
11:00 AM 51 °F 49 °F 92% 30.11 in 15 mi NW 6.9 mph - -   Partly Cloudy
11:00 AM 51.8 °F 50.0 °F 94% 30.11 in 15.0 mi WNW 6.9 mph - N/A   Overcast
12:00 PM 53.6 °F 48.2 °F 82% 30.12 in 15.0 mi West 3.5 mph - N/A   Overcast
1:00 PM 53.6 °F 50.0 °F 88% 30.12 in 20.0 mi WNW 8.1 mph - N/A   Scattered Clouds
2:00 PM 53.6 °F 48.2 °F 82% 30.12 in 20.0 mi NW 6.9 mph - N/A   Mostly Cloudy
3:00 PM 53.6 °F 48.2 °F 82% 30.12 in 20.0 mi NW 6.9 mph - N/A   Scattered Clouds
4:00 PM 55.4 °F 46.4 °F 72% 30.12 in 20.0 mi NW 3.5 mph - N/A   Scattered Clouds
5:00 PM 54 °F 47 °F 69% 30.11 in 19 mi WNW 4.6 mph - -   Overcast
5:00 PM 53.6 °F 46.4 °F 77% 30.11 in 20.0 mi WNW 5.8 mph - N/A   Overcast
6:00 PM 50.0 °F 44.6 °F 82% 30.11 in 20.0 mi NNW 4.6 mph - N/A   Mostly Cloudy
7:00 PM 51.8 °F 44.6 °F 76% 30.11 in 20.0 mi NE 3.5 mph - N/A   Scattered Clouds
8:00 PM 50.0 °F 46.4 °F 87% 30.13 in 20.0 mi Calm Calm - N/A   Mostly Cloudy
9:00 PM 51.8 °F 48.2 °F 88% 30.12 in 20.0 mi ENE 5.8 mph - N/A   Mostly Cloudy
10:00 PM 51.8 °F 46.4 °F 82% 30.12 in 20.0 mi East 8.1 mph - N/A   Mostly Cloudy
11:00 PM 51 °F 46 °F 79% 30.13 in 19 mi East 5.8 mph - -   Scattered Clouds
11:00 PM 50.0 °F 46.4 °F 87% 30.13 in 20.0 mi East 5.8 mph - N/A   Mostly Cloudy
11:12 PM 50.0 °F - N/A% - 20.0 mi East 3.5 mph - N/A Rain Light Rain
11:44 PM 50.0 °F - N/A% - 20.0 mi North 3.5 mph - N/A   Mostly Cloudy